Regional Weather Roundup
Issued by NWS State College, PA

Home | Current Version | Previous Version | Graphics & Text | Print | Product List | Glossary Off
Versions: 1 2 3 4 5 6 7 8 9 10 11 12 13 14 15 16 17 18 19 20 21 22 23 24 25 26 27 28 29 30 31 32 33 34 35 36 37 38 39 40 41 42 43 44 45 46 47 48 49 50

000
ASUS41 KCTP 140410
RWRCTP

REGIONAL WEATHER ROUNDUP
NATIONAL WEATHER SERVICE STATE COLLEGE PA
1100 PM EST SAT FEB 13 2016

Note: "fair" indicates few or no clouds below 12,000 feet with no
significant weather and/or obstructions to visibility.

* = STATION THAT DOES NOT REPORT PRECIPITATION /E.G. RAIN...SNOW...ETC/
    THUNDER OR FOG.

PAZ002>004-007>009-013>016-020>023-029>032-140500-
WESTERN PENNSYLVANIA

CITY           SKY/WX    TMP DP  RH WIND       PRES   REMARKS
ERIE           CLOUDY    11  -3  53 NW8       30.41F WCI  -1
MEADVILLE      LGT SNOW   7  -3  64 W7        30.34S WCI  -5
FRANKLIN*      CLOUDY     5  -8  56 NW7       30.34S WCI  -7
NEW CASTLE     FLURRIES   2  -2  83 SW3       30.42R
BEAVER COUNTY  NOT AVBL
BUTLER*        CLEAR      3   0  85 CALM      30.41F
PITTSBURGH INT MOCLDY     3  -3  76 W5        30.40S WCI  -6
PITTSBURGH     CLEAR      6  -3  66 W7        30.39S WCI  -6
INDIANA*       CLOUDY     5   0  78 W7        30.39S WCI  -7
LATROBE        LGT SNOW   5   1  85 S6        30.41F WCI  -6
WASHINGTON CO* CLOUDY     1  -4  78 CALM      30.40S
$$

PAZ004>006-010>012-017>019-024>028-033>037-041-042-045-046-049>053-140500-
CENTRAL PENNSYLVANIA

CITY           SKY/WX    TMP DP  RH WIND       PRES   REMARKS
BRADFORD       LGT SNOW   0  -5  79 NW7       30.21R WCI -13
DUBOIS         CLOUDY     1  -4  79 W9        30.26S WCI -14
CLEARFIELD     CLOUDY     4  -4  69 W7G18     30.30R WCI  -8
JOHNSTOWN      LGT SNOW   3  -5  69 W14       30.24R WCI -15
ALTOONA        PTCLDY     6  -5  60 NW15G24   30.31S WCI -12
STATE COLLEGE  CLOUDY     6  -4  63 W13       30.30S WCI -10
WILLIAMSPORT   PTCLDY     7  -9  48 W16G25    30.35R WCI -11
SELINSGROVE    CLEAR      9  -8  46 W8        30.37S WCI  -3
FT INDIANTOWN  PTCLDY     9  -3  57 W10G23    30.34F WCI  -5
CAPITAL CITY   CLOUDY    12  -8  40 W16G23    30.37F WCI  -5
HARRISBURG     PTCLDY    12  -4  48 NW20G28   30.37S WCI  -6
YORK           PTCLDY    10  -8  44 W15       30.37S WCI  -7
$$

PAZ038>040-043-044-047-048-054-055-060>062-067>071-140500-
EASTERN PENNSYLVANIA

CITY           SKY/WX    TMP DP  RH WIND       PRES   REMARKS
SCRANTON       PTCLDY     1 -11  57 NW15G24   30.26S WCI -18
MOUNT POCONO   CLOUDY    -4 -13  65 NW20G37   30.08F WCI -27
ALLENTOWN      CLOUDY     9  -9  44 NW15G24   30.31S WCI  -8
QUAKERTOWN*    CLEAR      9  -9  43 NW7       30.31S WCI  -3
READING        CLEAR     10  -8  44 NW16      30.33S WCI  -7
LANCASTER      MOCLDY     8  -3  61 NW10      30.36R WCI  -6
COATESVILLE    CLEAR      9  -2  61 NW15      30.32R WCI  -8
POTTSTOWN      CLEAR     10  -7  46 NW12G17   30.34S WCI  -5
BLUE BELL        N/A     10  -6  48 W6        30.32S WCI   1
DOYLESTOWN     CLEAR      8 -12  39 NW14G23   30.30S WCI  -8
WILLOW GROVE   NOT AVBL
NORTH PHILA    CLEAR     12  -5  46 NW8       30.36S WCI   0
PHILADELPHIA   PTCLDY    14  -8  37 W13G21    30.37S WCI   0
$$



USA.gov is the U.S. government's official web portal to all federal, state and local government web resources and services.